SCP
0 0 0 0 0 0 0 0 0 0 0 0 0 0 0 0 0 0 0 0 0 0 0 0 0 0 0 0 0 0 1 1 1 1 1 0 0 0 0 0 0 0 0 0
0 0 0 0 0 0 0 0 0 0 0 0 0 0 0 0 0 0 0 0 0 0 0 0 0 0 0 0 0 0 0 1 1 1 1 0 0 0 0 0 0 0 0 0
0 0 0 0 0 0 0 0 0 0 0 0 0 0 0 0 0 0 0 0 0 0 0 0 0 0 0 0 0 0 0 0 0 0 0 0 0 0 0 0 0 0 0 0
0 0 0 0 0 0 0 0 0 0 0 0 0 0 0 0 0 0 0 0 0 0 0 0 0 0 0 0 0 0 0 0 0 0 0 0 0 0 0 0 0 0 0 0
0 0 0 0 0 0 0 0 0 0 0 0 0 0 0 0 0 0 0 0 0 0 0 0 0 0 0 0 0 0 0 0 0 0 0 0 0 0 0 0 0 0 0 0
0 0 0 0 0 0 0 0 0 0 0 0 0 0 0 0 0 0 0 0 0 0 0 0 0 0 0 0 0 0 0 0 0 0 0 0 0 0 0 0 0 0 0 0
0 0 0 0 0 0 0 0 0 0 0 0 0 0 0 0 0 0 0 0 0 0 0 0 0 0 0 0 0 0 0 0 0 0 0 0 0 0 0 0 0 0 0 0
0 0 0 0 0 0 0 0 0 0 0 0 0 0 0 0 0 0 0 0 0 0 0 0 0 0 0 0 0 0 0 0 0 0 0 0 0 0 0 0 0 0 0 0
0 0 0 0 0 0 0 0 0 0 0 0 0 0 0 0 0 0 0 0 0 0 0 0 0 0 0 0 0 0 0 0 0 0 0 0 0 0 0 0 0 0 0 0
0 0 0 0 0 0 0 0 0 0 0 0 0 0 0 0 0 0 0 0 0 0 0 0 0 0 0 0 0 0 0 0 0 0 0 0 0 0 0 0 0 0 0 0
0 0 0 0 0 0 0 0 0 0 0 0 0 0 0 0 0 0 0 0 0 0 0 0 0 0 0 0 0 0 0 0 0 0 0 0 0 0 0 0 0 0 0 0
0 0 0 0 0 0 0 0 0 0 0 0 0 0 0 0 0 0 0 0 0 0 0 0 0 0 0 0 0 0 0 0 0 0 0 0 0 0 0 0 0 0 0 0
0 0 0 0 0 0 0 0 0 0 0 0 0 0 0 0 0 0 0 0 0 0 0 0 0 0 0 0 0 0 0 0 0 0 0 0 0 0 0 0 0 0 0 0
0 0 0 0 0 0 0 0 0 0 0 0 0 0 0 0 0 0 0 0 0 0 0 0 0 0 0 0 0 0 0 0 0 0 0 0 0 0 0 0 0 0 0 0
0 0 0 0 0 0 0 0 0 0 0 0 0 0 0 0 0 0 0 0 0 0 0 0 0 0 0 0 0 0 0 0 0 0 0 0 0 0 0 0 0 0 0 0
0 0 0 0 0 0 0 0 0 0 0 0 0 0 0 0 0 0 0 0 0 0 0 0 0 0 0 0 0 0 0 0 0 0 0 0 0 0 0 0 0 0 0 0
0 0 0 0 0 0 0 0 0 0 0 0 0 0 0 0 0 0 0 0 0 0 0 0 0 0 0 0 0 0 0 0 0 0 0 0 0 0 0 0 0 0 0 0
0 0 0 0 0 0 0 0 0 0 0 0 0 0 0 0 0 0 0 0 0 0 0 0 0 0 0 0 0 0 0 0 0 0 0 0 0 0 0 0 0 0 0 0
0 0 0 0 0 0 0 0 0 0 0 0 0 0 0 0 0 0 0 0 0 0 0 0 0 0 0 0 0 0 0 0 0 0 0 0 0 0 0 0 0 0 0 0
0 0 0 0 0 0 0 0 0 0 0 0 0 0 0 0 0 0 0 0 0 0 0 0 0 0 0 0 0 0 0 0 0 0 0 0 0 0 0 0 0 0 0 0
0 0 0 0 0 0 0 0 0 0 0 0 0 0 0 0 0 0 0 0 0 0 0 0 0 0 0 0 0 0 0 0 0 0 0 0 0 0 0 0 0 0 0 0
0 0 0 0 0 0 0 0 0 0 0 0 0 0 0 0 0 0 0 0 0 0 0 0 0 0 0 0 0 0 0 0 0 0 0 0 0 0 0 0 0 0 0 0
0 0 0 0 0 0 0 0 0 0 0 0 0 0 0 0 0 0 0 0 0 0 0 0 0 0 0 0 0 0 0 0 0 0 0 0 0 0 0 0 0 0 0 0
0 0 0 0 0 0 0 0 0 0 0 0 0 0 0 0 0 0 0 0 0 0 0 0 0 0 0 0 0 0 0 0 0 0 0 0 0 0 0 0 0 0 0 0
0 0 0 0 0 0 0 0 0 0 0 0 0 0 0 0 0 0 0 0 0 0 0 0 0 0 0 0 0 0 0 0 0 0 0 0 0 0 0 0 0 0 0 0
0 0 0 0 0 0 0 0 0 0 0 0 0 0 0 0 0 0 0 0 0 0 0 0 0 0 0 0 0 0 0 0 0 0 0 0 0 0 0 0 0 0 0 0
Wind_Speed
4 5 0 3 3 2 1 3 5 5 2 2 6 10 8 4 3 4 4 4 5 6 4 2 1 1 0 0 0 0 1 1 1 1 1 1 1 2 2 2 2 2 3 2
5 1 3 1 1 0 1 3 5 5 1 2 5 10 7 4 4 4 5 5 5 4 3 2 1 0 0 0 0 0 0 0 1 1 1 1 1 1 1 2 2 2 3 2
3 2 1 1 1 0 2 3 4 5 4 1 4 8 3 2 1 2 2 3 3 4 4 3 2 1 0 1 1 1 1 1 1 1 1 1 1 1 1 2 2 2 2 3
0 2 1 1 1 1 4 3 3 3 2 4 2 6 5 3 3 3 4 3 4 4 3 3 2 1 1 2 1 1 1 1 1 1 1 1 1 2 2 2 2 3 3 3
2 1 0 1 2 2 3 2 1 1 2 3 1 3 8 2 4 5 5 4 4 4 3 2 2 2 1 1 0 0 1 2 2 1 1 1 1 2 2 2 3 3 3 3
2 1 0 1 2 0 1 2 2 2 2 3 4 4 8 3 4 5 4 4 4 3 2 2 2 1 2 2 1 1 1 2 2 2 1 1 2 3 3 4 3 3 3 3
3 1 1 1 2 3 2 3 4 5 3 6 2 3 9 4 3 3 4 4 3 2 2 2 2 2 2 2 1 1 1 2 3 2 2 2 2 3 3 3 3 4 3 3
2 5 1 1 1 1 1 3 4 4 5 6 2 6 7 2 2 3 2 2 2 2 2 1 1 1 1 2 2 1 2 2 3 3 3 3 3 2 3 3 3 4 3 3
2 4 2 1 1 2 1 1 1 2 1 4 6 7 8 1 3 4 4 3 3 3 2 2 2 2 2 2 2 1 2 3 3 3 3 3 3 3 4 4 3 3 3 3
3 3 3 2 2 2 1 3 3 2 2 5 6 5 5 5 4 4 4 4 4 4 3 3 2 2 2 2 2 2 2 2 3 3 3 3 4 4 4 4 4 4 4 4
2 2 3 1 2 3 2 1 2 2 2 3 5 7 4 4 3 3 4 4 3 3 3 3 3 2 2 2 2 3 3 3 3 4 4 4 4 4 4 4 4 5 4 4
2 3 3 5 2 1 3 4 5 3 4 3 4 9 2 1 2 2 4 4 3 2 2 2 2 2 2 2 3 3 3 3 4 3 4 4 4 4 4 5 5 5 5 4
3 3 2 5 2 2 1 2 3 2 2 4 5 10 1 2 3 3 3 4 4 3 3 3 2 2 2 3 3 3 3 4 4 3 4 4 4 4 5 5 5 5 5 5
3 3 6 8 6 3 4 4 4 4 4 6 10 12 8 6 6 6 5 5 4 3 3 3 3 3 3 3 3 3 4 4 4 4 4 5 5 5 5 6 5 5 5 5
2 3 5 7 6 3 7 7 7 9 10 10 10 11 12 7 6 6 5 5 4 4 4 4 4 4 3 3 3 4 4 4 4 4 5 5 5 5 5 5 5 5 5 6
1 2 2 5 4 5 8 9 10 11 10 12 12 14 7 6 4 5 5 5 5 6 6 5 4 4 4 4 4 4 4 4 4 4 5 5 5 6 6 6 5 6 6 5
2 3 1 5 4 4 9 9 9 7 7 7 11 10 4 5 6 7 6 5 6 6 6 6 5 4 4 4 4 4 4 5 4 5 5 5 5 6 6 6 6 6 6 6
4 3 2 2 2 7 8 2 5 6 7 7 6 6 5 7 8 7 5 5 6 6 6 6 5 5 4 4 4 4 4 4 5 5 5 5 6 6 6 6 6 6 6 6
4 5 3 2 3 9 7 2 4 4 7 6 7 7 6 5 6 6 4 3 5 5 5 5 4 4 4 4 4 4 4 4 5 5 6 6 6 6 6 6 7 6 6 6
1 2 3 3 4 8 6 2 1 2 6 3 4 6 4 3 4 6 3 4 5 4 3 3 3 3 3 4 3 3 5 5 5 6 6 6 6 6 7 7 7 6 6 7
1 2 4 5 6 10 5 1 3 3 6 2 2 4 4 5 7 6 6 6 5 4 4 3 2 3 3 3 3 4 5 6 6 6 6 6 6 6 7 6 6 6 6 7
6 5 6 4 6 10 2 4 5 5 2 2 3 3 4 6 6 5 5 5 4 5 4 3 3 3 3 3 3 4 6 6 6 6 6 7 7 6 6 6 6 6 6 7
6 7 5 8 8 3 3 4 3 2 3 3 3 4 4 5 6 6 5 5 5 4 4 3 3 4 4 3 3 5 6 6 6 6 6 6 7 6 6 6 6 5 5 5
4 1 2 5 7 5 4 3 3 3 4 5 5 4 3 5 5 5 5 5 5 4 4 3 3 4 5 4 4 5 6 6 5 6 6 6 6 6 6 5 5 5 4 5
4 3 3 6 6 5 3 3 3 4 4 5 5 4 4 4 5 5 5 5 5 5 4 3 4 5 6 5 5 6 5 5 5 6 6 6 6 6 6 5 4 5 5 6
3 4 5 6 5 4 6 4 3 4 5 5 5 5 4 4 5 5 5 4 4 5 4 4 4 5 5 5 6 6 5 4 5 5 5 4 4 5 4 5 5 8 8 11
Wind_Direction
29 60 34 242 221 226 200 230 266 270 295 278 256 269 276 263 249 253 254 253 254 257 269 273 260 257 144 77 67 16 54 8 21 3 347 330 319 319 329 328 337 343 332 327
45 345 258 255 236 174 212 264 277 290 326 271 289 280 271 245 235 242 244 248 254 273 301 296 297 272 161 196 243 319 273 324 345 329 283 269 286 291 299 308 320 327 331 316
161 251 317 98 31 234 241 227 255 280 322 315 319 297 273 280 258 297 279 265 266 258 264 272 272 257 238 243 238 242 284 313 331 337 358 354 343 334 337 329 317 313 317 316
248 302 357 23 263 195 263 249 254 276 319 296 14 295 287 295 315 311 306 299 291 285 274 269 258 263 257 253 249 255 298 335 339 358 9 7 338 305 289 293 298 311 316 317
277 322 23 245 266 207 240 310 261 246 207 293 305 249 286 336 310 298 297 291 295 288 269 265 258 255 297 301 304 302 351 353 349 351 339 315 305 296 304 312 310 307 308 306
259 312 155 252 320 206 176 38 48 55 89 274 229 201 280 261 255 297 308 305 304 308 311 316 337 13 10 11 15 12 13 347 347 344 332 311 302 310 315 317 311 309 304 302
324 314 349 18 20 13 47 64 4 346 341 257 204 211 254 260 258 265 292 298 309 320 332 345 2 0 0 360 0 6 3 337 337 339 332 315 303 298 290 296 299 300 296 286
326 299 287 342 172 196 223 144 166 237 258 286 295 240 255 260 307 308 309 311 334 345 337 320 304 302 314 335 349 351 342 329 332 333 326 320 317 303 292 289 288 286 285 281
197 270 340 3 340 135 132 204 184 155 267 278 270 281 297 322 343 346 342 344 337 335 325 320 320 323 328 339 338 330 330 329 328 326 326 324 321 313 302 300 298 296 296 298
165 263 290 323 36 24 124 150 106 143 247 270 284 271 265 296 305 316 319 313 312 321 325 333 332 325 330 340 342 346 334 321 325 325 322 320 315 315 310 305 304 304 303 298
139 195 298 344 203 214 125 135 159 186 204 217 278 273 232 237 254 268 276 282 285 295 307 316 324 332 342 352 350 348 343 337 334 328 324 321 315 317 317 308 306 305 305 301
158 140 263 258 256 208 176 183 164 189 243 217 239 270 280 217 275 270 287 295 293 290 302 309 319 341 349 343 339 338 335 327 320 319 319 314 317 320 315 309 309 307 307 303
145 134 325 328 326 8 279 215 193 175 177 202 220 263 314 356 334 316 308 312 308 305 314 322 328 326 322 322 323 321 321 321 322 322 318 316 319 315 308 305 307 307 306 304
133 170 196 226 246 202 246 240 204 184 213 232 232 257 284 306 311 314 313 306 299 298 303 308 310 307 308 311 311 312 317 320 322 322 315 311 307 304 301 301 304 304 304 303
128 219 237 257 270 250 244 245 218 213 220 230 250 254 271 279 285 289 290 294 299 304 301 297 298 300 305 311 313 312 315 317 317 314 309 304 303 301 300 301 301 302 301 300
162 218 256 278 271 264 265 254 237 234 235 243 261 270 272 282 289 293 290 288 291 293 294 295 299 301 301 301 304 309 309 310 310 302 299 303 304 303 301 300 302 303 301 299
194 175 206 270 303 326 270 238 215 220 220 213 239 256 293 303 295 286 283 278 279 290 296 298 296 288 288 290 296 295 299 307 306 300 298 301 302 301 299 300 304 301 299 298
172 170 201 275 10 252 248 200 195 217 241 223 243 269 279 274 282 280 261 257 274 284 289 293 294 296 298 297 299 301 306 305 301 299 299 302 302 299 301 299 296 293 292 290
182 171 184 200 252 274 285 231 180 204 262 224 233 264 280 296 304 284 258 252 258 268 277 282 284 290 296 298 302 309 307 303 300 298 298 299 299 297 297 294 290 288 288 287
150 160 178 187 223 251 259 228 173 120 279 240 221 257 276 319 303 285 305 303 296 295 291 293 297 301 300 301 306 306 300 299 293 293 295 295 293 290 289 287 286 284 282 283
168 198 210 216 235 261 256 184 131 188 263 284 255 259 253 239 247 283 307 308 300 297 297 296 297 293 288 293 297 293 294 287 289 295 296 296 293 289 285 283 282 282 284 286
191 194 209 197 224 255 179 145 195 235 293 299 285 272 264 271 286 296 303 306 309 311 309 301 297 299 300 296 288 289 289 290 295 297 296 297 296 293 291 285 285 284 282 283
209 203 201 203 225 260 183 205 247 274 276 278 276 285 280 283 286 295 301 300 304 304 302 300 292 300 305 299 280 283 291 299 299 298 296 297 298 296 294 290 288 288 282 279
256 233 219 255 263 272 273 278 296 293 279 285 284 284 274 274 281 290 296 300 302 300 299 298 298 299 300 300 293 283 290 298 296 295 296 298 298 298 296 292 287 286 283 280
241 197 238 260 282 310 289 265 285 301 303 304 305 292 273 272 282 282 289 291 290 296 298 292 290 289 292 298 296 293 295 297 293 292 292 297 297 296 297 295 286 286 273 278
219 199 214 251 260 262 278 287 296 299 301 301 305 305 299 276 272 278 281 281 285 291 295 296 291 290 292 294 294 295 294 292 290 295 298 297 298 298 299 302 304 302 302 305